FW0979 Weather Reports


Display with metric or nautical units.
time (UTC)temp
F
wind
direction
speed
MPH
gust
MPH
rain 1hr
in
rain 24hr
in
rain mn
in
humidity
%
barometer
mb
20260507050100 62 111 7.0 14.0 0.00 0.00 0.00 52 1011.8
20260507050002 62 360 7.0 14.0 0.00 0.00 0.00 51 1011.9
20260507044600 64 135 6.0 12.0 0.00 0.00 0.00 47 1011.7
20260507043056 65 155 2.0 11.0 0.00 0.00 0.00 44 1011.5
20260507041603 67 105 4.0 8.0 0.00 0.00 0.00 40 1011.3
20260507040054 68 316 3.0 9.0 0.00 0.00 0.00 26 1011.1
20260507034552 66 122 6.0 12.0 0.00 0.00 0.00 32 1010.7
20260507033053 66 281 2.0 5.0 0.00 0.00 0.00 26 1010.3
20260507031551 67 285 1.0 3.0 0.00 0.00 0.00 27 1010.0
20260507030051 68 285 1.0 3.0 0.00 0.00 0.00 27 1009.7
20260507024553 70 285 1.0 3.0 0.00 0.00 0.00 23 1009.7
20260507023049 71 285 2.0 5.0 0.00 0.00 0.00 18 1009.4
20260507021601 72 283 4.0 8.0 0.00 0.00 0.00 18 1009.1
20260507020106 73 283 5.0 9.0 0.00 0.00 0.00 18 1008.9
20260507014616 74 291 7.0 12.0 0.00 0.00 0.00 17 1008.8
20260507013050 76 293 7.0 14.0 0.00 0.00 0.00 16 1008.6
20260507011556 77 285 11.0 17.0 0.00 0.00 0.00 15 1008.3
20260507010047 78 283 7.0 14.0 0.00 0.00 0.00 14 1008.2
20260507004545 78 283 11.0 18.0 0.00 0.00 0.00 14 1008.1
20260507003044 79 283 13.0 20.0 0.00 0.00 0.00 13 1007.9
20260507001558 79 280 8.0 18.0 0.00 0.00 0.00 13 1007.7
20260507000056 79 264 14.0 25.0 0.00 0.00 0.00 13 1007.6
20260506234601 80 360 9.0 19.0 0.00 0.00 0.00 13 1007.5
20260506233047 80 285 15.0 21.0 0.00 0.00 0.00 13 1007.6
20260506231543 81 266 13.0 27.0 0.00 0.00 0.00 12 1007.4
20260506230041 80 273 10.0 19.0 0.00 0.00 0.00 13 1007.2
20260506224539 80 279 16.0 23.0 0.00 0.00 0.00 13 1007.1
20260506223138 80 264 13.0 29.0 0.00 0.00 0.00 13 1007.1
20260506221550 80 279 17.0 25.0 0.00 0.00 0.00 12 1007.4
20260506220043 81 264 11.0 20.0 0.00 0.00 0.00 13 1007.3
20260506214533 80 360 8.0 21.0 0.00 0.00 0.00 14 1007.4
20260506213040 80 259 14.0 24.0 0.00 0.00 0.00 14 1007.7
20260506211540 80 219 11.0 19.0 0.00 0.00 0.00 16 1007.9
20260506210035 79 281 13.0 30.0 0.00 0.00 0.00 19 1008.2
20260506204531 79 276 9.0 21.0 0.00 0.00 0.00 20 1008.4
20260506203021 77 360 11.0 23.0 0.00 0.00 0.00 20 1008.6
20260506201523 77 291 15.0 23.0 0.00 0.00 0.00 20 1008.8
20260506200018 76 360 7.0 14.0 0.00 0.00 0.00 23 1008.8
20260506194517 76 267 10.0 18.0 0.00 0.00 0.00 21 1009.1
20260506193018 75 231 7.0 14.0 0.00 0.00 0.00 27 1008.9
20260506191510 74 360 2.0 9.0 0.00 0.00 0.00 32 1009.1
20260506190010 74 337 3.0 9.0 0.00 0.00 0.00 32 1009.5
20260506184507 74 304 3.0 7.0 0.00 0.00 0.00 34 1009.9
20260506183005 71 360 3.0 8.0 0.00 0.00 0.00 37 1010.2
20260506181510 72 137 2.0 7.0 0.00 0.00 0.00 36 1010.5
20260506180100 69 160 4.0 9.0 0.00 0.00 0.00 41 1010.7
20260506174554 67 88 5.0 10.0 0.00 0.00 0.00 43 1010.7
20260506173116 66 124 5.0 11.0 0.00 0.00 0.00 44 1010.9
20260506171545 65 89 5.0 11.0 0.00 0.00 0.00 48 1010.8
20260506170056 64 360 5.0 11.0 0.00 0.00 0.00 50 1010.9
20260506164538 62 360 5.0 10.0 0.00 0.00 0.00 51 1010.9
20260506163041 61 100 5.0 10.0 0.00 0.00 0.00 53 1010.9
20260506161532 60 110 5.0 10.0 0.00 0.00 0.00 55 1011.0
20260506160029 58 96 5.0 11.0 0.00 0.00 0.00 58 1010.9
20260506154525 58 360 6.0 0.0 0.00 0.00 0.00 59 1010.8
20260506153024 57 96 6.0 12.0 0.00 0.00 0.00 61 1010.9
20260506151516 55 360 7.0 12.0 0.00 0.00 0.00 64 1010.8
20260506150016 55 81 7.0 12.0 0.00 0.00 0.00 66 1010.7
20260506144508 54 74 6.0 11.0 0.00 0.00 0.00 69 1010.6
20260506143009 52 75 8.0 12.0 0.00 0.00 0.00 72 1010.4
20260506141503 52 360 6.0 12.0 0.00 0.00 0.00 73 1010.4
20260506140100 51 72 8.0 15.0 0.00 0.00 0.00 73 1010.4
20260506134558 51 65 9.0 14.0 0.00 0.00 0.00 75 1010.2
20260506133107 51 106 8.0 17.0 0.00 0.00 0.00 75 1009.9
20260506131546 52 360 9.0 17.0 0.00 0.00 0.00 74 1009.8
20260506130040 53 94 8.0 14.0 0.00 0.00 0.00 72 1009.4
20260506124532 54 75 5.0 17.0 0.00 0.00 0.00 68 1008.8
20260506123023 56 50 4.0 8.0 0.00 0.00 0.00 60 1008.5
20260506121515 58 345 2.0 7.0 0.00 0.00 0.00 55 1008.2
20260506120007 59 343 4.0 6.0 0.00 0.00 0.00 51 1007.9
20260506114502 60 340 2.0 6.0 0.00 0.00 0.00 48 1007.6
20260506113056 61 340 6.0 9.0 0.00 0.00 0.00 45 1007.7
20260506111551 63 360 5.0 9.0 0.00 0.00 0.00 40 1007.2
20260506110049 63 266 7.0 10.0 0.00 0.00 0.00 40 1007.0
20260506104608 63 360 5.0 10.0 0.00 0.00 0.00 41 1006.8
20260506103043 63 360 5.0 8.0 0.00 0.00 0.00 42 1006.5
20260506101542 63 247 5.0 11.0 0.00 0.00 0.00 44 1006.3
20260506100043 62 238 4.0 9.0 0.00 0.00 0.00 47 1006.3
20260506094538 61 360 3.0 8.0 0.00 0.00 0.00 51 1006.2
20260506093032 61 360 5.0 8.0 0.00 0.00 0.00 55 1006.1
20260506091529 61 360 4.0 7.0 0.00 0.00 0.00 56 1006.1
20260506090025 62 360 5.0 9.0 0.00 0.00 0.00 54 1005.8
20260506084521 62 217 4.0 7.0 0.00 0.00 0.00 54 1005.8
20260506083034 62 360 3.0 7.0 0.00 0.00 0.00 53 1005.7
20260506081516 62 281 3.0 6.0 0.00 0.00 0.00 53 1005.4
20260506073009 63 360 2.0 4.0 0.00 0.00 0.00 51 1005.3
20260506071508 63 360 2.0 5.0 0.00 0.00 0.00 50 1005.3
20260506061555 64 288 4.0 5.0 0.00 0.00 0.00 49 1004.8